STARLINK-38357, 100617

Orbit data source: Space-Track

STARLINK-38357, 100617 is a payload satellite owned by SpaceX/Seattle (US) in LEO that was launched on Sun, 06 Sep 2026 UTC launched from the Air Force Western Test Range (AFWTR). Payload-class satellites include a variety of spacecraft equipped with specific instruments for various scientific and technological missions. These include communications satellites like Starlink; space stations such as the ISS; scientific satellites like the Hubble; Earth observation satellites from companies like Planet Labs, Umbra, and HawkEye 360; GPS; miniature CubeSats for education and research; and military/defense satellites.

Not visible in the next 10 days
Identifier
100617, 2026-204C
Orbit
LEO
Country
Flag of USUS
Related business
Manufacturer
SpaceX/Seattle
Mission
Operational spacecraft
Bus & Motor
STARLINK V2MO, Unknown motor
Mass
575 kg wet, ~530 kg dry
Launch date (UTC)
2026-09-06 (5 days ago)
Launch vehicle
Unknown
Launch site
Air Force Western Test Range (AFWTR)
Object type
Payload
Rocket body
Debris
Shape & HBR
BOX + PAN, 17.7 m
Radar Cross Section
RCS unknown

Expand to show TLE details & history
Last TLE update: 10 hours ago

TLE from 10 hours ago
0 STARLINK-38357
1 A0617U 26204C   26253.99924624  .00335365  53665-4  53186-3 0  9991
2 A0617  69.9973 264.9348 0005119 200.2894 159.8116 16.03595398   714
Epoch: 2026-09-10T23:58Z
TLE epoch observation values (Epoch: 2026-09-10T23:58:54.875Z)
Latitude
-0.00003°
Longitude
-84.82276°
Altitude
270.199 km
Speed
7.744 km/s
True Right ascension
17h 39m 44s
True Declination
0° 00' 00"
Sunlit
Object was in daylight at epoch
Visualization orbit readout
Latitude
Unknown
Longitude
Unknown
Altitude
Unknown
Speed
Unknown
Apparent Right ascension
Unknown
Apparent Declination
Unknown
Sunlit
N/A
Visualization observer readout
Local Sidereal Time
02:29:21
Azimuth
Unknown
Elevation
Unknown
Doppler factor
Unknown
Orbital elements
Apogee altitude
265.724 km
Perigee altitude
258.925 km
Semi-major axis
6,640.461 km
Eccentricity
0.00051
Inclination
69.9973°
RAAN
264.9348°
Arg. of periapsis
200.2894°
True anomaly
159.83183°
Mean anomaly
159.8116°
Eccentric anomaly
159.82172°
Mean motion
4.01094 °/min
Orbital period
89.75 mins
BSTAR
0.00053186
Loading maneuver chart data...
Computing Atmospheric mass density...
Loading historical data...
Loading historical data...
Loading historical data...
Loading historical data...
Loading historical data...
Loading historical data...
Loading historical data...

Documentation

Showing up to 5 results
|